Regional Weather Roundup
Issued by NWS State College, PA

Home | Current Version | Previous Version | Text Only | Print | Product List | Glossary On
Versions: 1 2 3 4 5 6 7 8 9 10 11 12 13 14 15 16 17 18 19 20 21 22 23 24 25 26 27 28 29 30 31 32 33 34 35 36 37 38 39 40 41 42 43 44 45 46 47 48 49 50
000
ASUS41 KCTP 271310
RWRCTP

REGIONAL WEATHER ROUNDUP
NATIONAL WEATHER SERVICE STATE COLLEGE PA
900 AM EDT TUE JUN 27 2017

Note: "fair" indicates few or no clouds below 12,000 feet with no
significant weather and/or obstructions to visibility.

* = STATION THAT DOES NOT REPORT PRECIPITATION /E.G. RAIN...SNOW...ETC/
    THUNDER OR FOG.

PAZ002>004-007>009-013>016-020>023-029>032-271400-
WESTERN PENNSYLVANIA

CITY           SKY/WX    TMP DP  RH WIND       PRES   REMARKS
ERIE           CLOUDY    57  51  80 SW10      30.00R
MEADVILLE      PTSUNNY   56  51  84 W8        30.03R
FRANKLIN*      CLOUDY    55  48  76 W7        30.05R
NEW CASTLE     PTSUNNY   59  50  72 W9        30.06R
BEAVER COUNTY  NOT AVBL
BUTLER*        MOSUNNY   59  48  67 W8        30.06R
PITTSBURGH INT MOSUNNY   59  49  69 SW9       30.06R
PITTSBURGH     MOSUNNY   60  49  66 W8        30.06R
INDIANA*       PTSUNNY   59  54  82 W9        30.08S
LATROBE        PTSUNNY   59  55  88 W9        30.07R
WASHINGTON CO* SUNNY     59  50  72 W6        30.10R
$$

PAZ004>006-010>012-017>019-024>028-033>037-041-042-045-046-049>053-271400-
CENTRAL PENNSYLVANIA

CITY           SKY/WX    TMP DP  RH WIND       PRES   REMARKS
BRADFORD       PTSUNNY   53  50  89 SW7       30.02R
DUBOIS         PTSUNNY   55  49  80 SW12      30.03R
CLEARFIELD     MOSUNNY   58  54  86 SW9       30.04R
JOHNSTOWN      PTSUNNY   57  51  80 W12       30.06R
ALTOONA        PTSUNNY   60  52  74 SW7       30.05S
STATE COLLEGE  MOSUNNY   61  54  77 SW10      30.03S
WILLIAMSPORT   MOSUNNY   63  57  81 CALM      30.01S
SELINSGROVE    SUNNY     62  58  86 CALM      30.03
FT INDIANTOWN  PTSUNNY   64  57  77 CALM      30.02F
CAPITAL CITY   MOSUNNY   64  55  72 W3        30.03R
HARRISBURG     CLOUDY    66  59  78 W6        30.02R
YORK           CLOUDY    65  57  75 CALM      30.03
$$

PAZ038>040-043-044-047-048-054-055-060>062-067>071-271400-
EASTERN PENNSYLVANIA

CITY           SKY/WX    TMP DP  RH WIND       PRES   REMARKS
SCRANTON       CLOUDY    59  56  89 SW5       30.02F
MOUNT POCONO   CLOUDY    57  53  86 W9        30.05
ALLENTOWN      CLOUDY    64  55  72 CALM      30.03
QUAKERTOWN*    CLOUDY    63  59  88 W3        30.04S
READING        PTSUNNY   66  59  78 SE6       30.01
LANCASTER      CLOUDY    66  58  75 CALM      30.02F
COATESVILLE    CLOUDY    64  59  82 CALM      30.04F
POTTSTOWN      CLOUDY    62  60  93 CALM      30.04
BLUE BELL      CLOUDY    63  61  94 CALM      30.04S
DOYLESTOWN     MOSUNNY   62  60  93 CALM      30.03
WILLOW GROVE   NOT AVBL
NORTH PHILA    CLOUDY    66  61  84 CALM      30.04R
PHILADELPHIA   CLOUDY    66  61  84 S5        30.03R
$$




USA.gov is the U.S. government's official web portal to all federal, state and local government web resources and services.